Location: Broekland
(52.3610°N, 6.2005°E)
Time: 00:59:07
(UTC+00:00)

NOSS 3-1 (C) - Pass Details

Date: 19 May 2025
Orbit: 632 x 1571 km, 63.4° (Epoch: 12 June)

Event Time Altitude Azimuth Distance (km) Brightness Sun altitude
Rises 20:17:42 0° 188° (S) 2,976 5.7 -6.3°
Reaches altitude 10° 20:20:04 10° 177° (S) 2,130 4.9 -6.6°
Maximum altitude 20:24:13 30° 116° (ESE) 1,345 3.8 -7.0°
Drops below altitude 10° 20:29:02 10° 58° (ENE) 2,511 5.6 -7.5°
Sets 20:32:04 0° 48° (NE) 3,612 6.5 -7.8°
